Regional Weather Roundup
Issued by NWS Sterling, VA

Home | Current Version | Previous Version | Graphics & Text | Print | Product List | Glossary On
Versions: 1 2 3 4 5 6 7 8 9 10 11 12 13 14 15 16 17 18 19 20 21 22 23 24 25 26 27 28 29 30 31 32 33 34 35 36 37 38 39 40 41 42 43 44 45 46 47 48 49 50
000
ASUS41 KLWX 291310
RWRLWX

REGIONAL WEATHER ROUNDUP
NATIONAL WEATHER SERVICE BALTIMORE MD/WASHINGTON DC
900 AM EDT FRI AUG 29 2014

Note: "FAIR" indicates few or no clouds below 12,000 feet
with no significant weather and/or obstructions to visibility.
 TC=TEMPERATURE CELSIUS

 * =Non NWS site. Station does not report precipitation (e.g. rain,
    snow, etc.), thunder, or fog.

DCZ001-MDZ009-015-VAZ040>042-051-053>054-291400-
WASHINGTON METRO
  /KDAA//-FT BELVOIR

CITY           SKY/WX    TMP DP  RH WIND       PRES   REMARKS
WASHINGTON NAT MOSUNNY   70  50  49 NE6       30.20R
DULLES         MOSUNNY   64  54  69 VRB3      30.21R
ANDREWS AFB    SUNNY     66  53  62 NE6       30.20R
QUANTICO       SUNNY     68  55  63 N8        30.21R
COLLEGE PARK*  SUNNY     66  54  63 CALM      30.20R
LEESBURG*      SUNNY     64  54  68 NE5       30.22S
MANASSAS*      SUNNY     64  55  72 CALM      30.21R
GAITHERSBURG*  SUNNY     64  52  63 NE3       30.25R

$$

MDZ006>007-011-014-291400-
BALTIMORE METRO

CITY           SKY/WX    TMP DP  RH WIND       PRES   REMARKS
BWI AIRPORT    PTSUNNY   68  51  54 NE8       30.19S
MD SCIENCE CTR   N/A     69  50  50 MISG      30.20R
MARTIN STATE   MOSUNNY   66  55  68 N9        30.20S
ANNAPOLIS      SUNNY     69  54  58 NE8       30.19R
FORT MEADE*    SUNNY     64  52  63 NE3       30.22R

$$

MDZ012-015-019>023-291400-
MARYLAND EASTERN SHORE

CITY           SKY/WX    TMP DP  RH WIND       PRES   REMARKS
OCEAN CITY     SUNNY     71  59  65 NE6       30.16R
SALISBURY      SUNNY     69  56  62 N6        30.17R
BAY BRIDGE AP*   N/A     68  50  52 NE7       30.19S
CAMBRIDGE*     SUNNY     68  54  60 N7        30.18R
EASTON*        SUNNY     66  55  68 NE5       30.21F

$$

MDZ017>025-291400-
SOUTHERN MARYLAND

CITY           SKY/WX    TMP DP  RH WIND       PRES   REMARKS
PATUXENT RIVER MOSUNNY   69  53  56 NE9       30.18S
ST INIGOES     SUNNY     69  54  58 VRB7      30.17R
LEONARDTOWN*   SUNNY     68  52  56 NE6       30.19S

$$

MDZ003>005-291400-
NORTH CENTRAL MARYLAND

CITY           SKY/WX    TMP DP  RH WIND       PRES   REMARKS
FREDERICK*     SUNNY     63  55  77 CALM      30.24R
HAGERSTOWN APT SUNNY     63  53  70 NW5       30.22R
WESTMINSTER*   SUNNY     63  52  67 NE3       30.22R

$$

MDZ501>502-291400-
WESTERN MARYLAND

CITY           SKY/WX    TMP DP  RH WIND       PRES   REMARKS
OAKLAND*       SUNNY     54  52  94 SE12      30.23R
CUMBERLAND*    SUNNY     61  54  77 CALM      30.27R

$$

VAZ025>031-291400-
SHENANDOAH VALLEY

CITY           SKY/WX    TMP DP  RH WIND       PRES   REMARKS
WINCHESTER*    SUNNY     63  52  67 E3        30.22R
STAUNTON*      SUNNY     64  55  72 CALM      30.24R

$$

WVZ021-048>050-054>055-291400-
EASTERN WEST VIRGINIA PANHANDLE

CITY           SKY/WX    TMP DP  RH WIND       PRES   REMARKS
MARTINSBURG    SUNNY     63  51  65 CALM      30.22R
PETERSBURG*    NOT AVBL

$$

VAZ036>039-050-291400-
CENTRAL FOOTHILLS

CITY           SKY/WX    TMP DP  RH WIND       PRES   REMARKS
CHARLOTTESVILL SUNNY     67  54  63 NE7       30.21R
ORANGE*        SUNNY     64  54  68 NW6       30.22R

$$

VAZ055>057-291400-
NORTH AND CENTRAL PIEDMONT

CITY           SKY/WX    TMP DP  RH WIND       PRES   REMARKS
FREDERICKSBRG* SUNNY     67  57  70 N3        30.18S
STAFFORD*      SUNNY     66  57  73 N3        30.24R

$$

NCZ024-NYZ072-PAZ021-071-VAZ022-071-291400-
OTHER REGIONAL OBSERVATIONS

CITY           SKY/WX    TMP DP  RH WIND       PRES   REMARKS
NEW YORK CITY  MOSUNNY   65  50  58 CALM      30.21R
PHILADELPHIA   PTSUNNY   67  51  56 N7        30.19R
PITTSBURGH     PTSUNNY   56  53  90 E6        30.19S
ROANOKE        PTSUNNY   69  53  56 VRB3      30.23R
RICHMOND       PTSUNNY   70  59  68 NE8       30.17R
RALEIGH        CLOUDY    74  68  81 NE8       30.13R

$$

ANZ530>537-291400-
MARINE OBSERVATIONS

STATION/POSITION TIME  TEMP    WIND        PRES
                       AIR SEA DIR/SP/G
                 (UTC) (F)     (DEG/KT/KT) (MB)
THOMAS PT LIGHT  1300   66 77   40/  9/ 10 1023.2R
BALT KEY BRIDGE  1300   72      20/  7/  9 1022.2R
COVE POINT       1300   67      60/  7/ 10 1021.9R
LEWISETTA        1300   70 78   50/  7/ 10 1021.4R
SOLOMONS ISLAND  1300      80                N/A
PINEY POINT      1300           60/  6/  8   N/A

$$



USA.gov is the U.S. government's official web portal to all federal, state and local government web resources and services.